Weather in Kirs

Russia / Kirov Oblast     59°20′23″N   52°14′29″E
temp.,
°C
wind,
m/s
gust,
m/s
humid.,
%
clouds,
%
prec.,
mm/h
press.,
hPa
HPBL,
m
11 april, sun
sun1100:00+1ne11100100 0.3 102720
03:00+1nnw11100100 0.3 102728
06:00+1nw11100100 0.1 102738
09:00+3sw139699 0.2 1028206
12:00+7w35735 0.0 1027757
15:00+8wsw36684 0.0 1029802
18:00+4sw3889100 0.0 1031185
21:00+2wsw2994100 0.0 1032196
12 april, mon
mon1200:00+1wsw259826 0.0 103486
03:00−1wsw129938 0.0 103739
06:00+1w14910 0.0 103897
09:00+6w12605 0.0 1039550
12:00+9w23475 0.0 10391038
15:00+9w12448 0.0 1039990
18:00+5ssw11725 0.0 103910
21:00+2s238612 0.0 103953
13 april, tue
tue1300:000s23896 0.0 103961
03:000s24935 0.0 103982
06:00+2s268499 0.0 1038146
09:00+8s376998 0.0 1035437
12:00+12ssw4762100 0.0 1033765
15:00+12ssw4972100 0.0 1031704
18:00+10ssw41185100 0.0 1030442
21:00+9ssw41392100 0.0 1029451
14 april, wed
wed1400:00+8sw31195100 0.0 1028344
03:00+7ssw3996100 0.0 1028217
06:00+7ssw3894100 0.0 1028228
09:00+12sw4771100 0.0 1027459
12:00+15sw575184 0.0 10251032
15:00+16sw484856 0.0 10231633
18:00+13sw3961100 0.0 1023264
21:00+9sw3127362 0.0 1022293
15 april, thu
thu1500:00+8sw3127994 0.0 1021277
03:00+7sw3118299 0.0 1021241
06:00+8sw31078100 0.0 1020292
09:00+12sw486024 0.0 1019551
12:00+16sw574883 0.0 10171412
15:00+16sw4747100 0.0 10161839
18:00+13sw3761100 0.0 1014207
21:00+7nne3588100 0.0 1014261